Time,TemperatureF,DewpointF,PressureIn,WindDirection,WindDirectionDegrees,WindSpeedMPH,WindSpeedGustMPH,Humidity,HourlyPrecipIn,Conditions,Clouds,dailyrainin,SoftwareType,DateUTC
2013-02-07 00:02:00,22.0,5.0,30.26,East,96,0.0,3.0,48,0.00,,,0.01,,2013-02-07 05:02:00,
2013-02-07 00:12:00,22.0,5.0,30.26,East,96,0.0,3.0,48,0.00,,,0.01,,2013-02-07 05:12:00,
2013-02-07 00:21:00,21.0,4.0,30.26,ESE,121,0.0,4.0,46,0.00,,,0.01,,2013-02-07 05:21:00,
2013-02-07 00:32:00,21.0,4.0,30.26,ESE,121,0.0,4.0,46,0.00,,,0.01,,2013-02-07 05:32:00,
2013-02-07 00:43:00,21.0,4.0,30.26,ESE,121,0.0,4.0,46,0.00,,,0.01,,2013-02-07 05:43:00,
2013-02-07 00:52:00,20.0,3.0,30.27,SSE,162,0.0,1.0,47,0.00,,,0.01,,2013-02-07 05:52:00,
2013-02-07 01:02:00,20.0,3.0,30.27,SSE,162,0.0,1.0,47,0.00,,,0.01,,2013-02-07 06:02:00,
2013-02-07 01:11:00,20.0,3.0,30.27,SSE,162,0.0,1.0,47,0.00,,,0.01,,2013-02-07 06:11:00,
2013-02-07 01:22:00,19.0,1.0,30.28,SSE,162,0.0,0.0,45,0.00,,,0.01,,2013-02-07 06:22:00,
2013-02-07 01:32:00,19.0,1.0,30.28,SSE,162,0.0,0.0,45,0.00,,,0.01,,2013-02-07 06:32:00,
2013-02-07 01:43:00,19.0,1.0,30.28,SSE,162,0.0,0.0,45,0.00,,,0.01,,2013-02-07 06:43:00,
2013-02-07 01:52:00,18.0,3.0,30.30,SSE,162,0.0,0.0,50,0.00,,,0.01,,2013-02-07 06:52:00,
2013-02-07 02:01:00,18.0,3.0,30.30,SSE,162,0.0,0.0,50,0.00,,,0.01,,2013-02-07 07:01:00,
2013-02-07 02:11:00,18.0,1.0,30.30,SSE,162,0.0,0.0,47,0.00,,,0.01,,2013-02-07 07:11:00,
2013-02-07 02:22:00,18.0,1.0,30.30,SSE,162,0.0,0.0,47,0.00,,,0.01,,2013-02-07 07:22:00,
2013-02-07 02:32:00,18.0,1.0,30.30,SSE,162,0.0,0.0,47,0.00,,,0.01,,2013-02-07 07:32:00,
2013-02-07 02:42:00,18.0,1.0,30.30,SSE,162,0.0,0.0,47,0.00,,,0.01,,2013-02-07 07:42:00,
2013-02-07 02:52:00,17.0,1.0,30.31,ESE,123,0.0,4.0,48,0.00,,,0.01,,2013-02-07 07:52:00,
2013-02-07 03:01:00,17.0,1.0,30.31,ESE,123,0.0,4.0,48,0.00,,,0.01,,2013-02-07 08:01:00,
2013-02-07 03:11:00,17.0,1.0,30.31,ESE,123,0.0,4.0,48,0.00,,,0.01,,2013-02-07 08:11:00,
2013-02-07 03:22:00,17.0,0.0,30.31,SE,139,0.0,1.0,47,0.00,,,0.01,,2013-02-07 08:22:00,
2013-02-07 03:32:00,17.0,0.0,30.31,SE,139,0.0,1.0,47,0.00,,,0.01,,2013-02-07 08:32:00,
2013-02-07 03:42:00,17.0,0.0,30.31,SE,139,0.0,1.0,47,0.00,,,0.01,,2013-02-07 08:42:00,
2013-02-07 03:52:00,16.0,0.0,30.32,SE,139,0.0,0.0,48,0.00,,,0.01,,2013-02-07 08:52:00,
2013-02-07 04:02:00,16.0,0.0,30.32,SE,139,0.0,0.0,48,0.00,,,0.01,,2013-02-07 09:02:00,
2013-02-07 04:11:00,16.0,0.0,30.32,SE,139,0.0,0.0,48,0.00,,,0.01,,2013-02-07 09:11:00,
2013-02-07 04:21:00,15.0,1.0,30.35,SE,139,0.0,1.0,53,0.00,,,0.01,,2013-02-07 09:21:00,
2013-02-07 04:32:00,15.0,1.0,30.35,SE,139,0.0,1.0,53,0.00,,,0.01,,2013-02-07 09:32:00,
2013-02-07 04:42:00,15.0,1.0,30.35,SE,139,0.0,1.0,53,0.00,,,0.01,,2013-02-07 09:42:00,
2013-02-07 04:52:00,15.0,1.0,30.37,SE,139,0.0,0.0,53,0.00,,,0.01,,2013-02-07 09:52:00,
2013-02-07 05:02:00,15.0,1.0,30.37,SE,139,0.0,0.0,53,0.00,,,0.01,,2013-02-07 10:02:00,
2013-02-07 05:11:00,15.0,1.0,30.37,SE,139,0.0,0.0,53,0.00,,,0.01,,2013-02-07 10:11:00,
2013-02-07 05:22:00,14.0,2.0,30.37,SE,139,0.0,0.0,57,0.00,,,0.01,,2013-02-07 10:22:00,
2013-02-07 05:32:00,14.0,2.0,30.37,SE,139,0.0,0.0,57,0.00,,,0.01,,2013-02-07 10:32:00,
2013-02-07 05:42:00,14.0,2.0,30.37,SE,139,0.0,0.0,57,0.00,,,0.01,,2013-02-07 10:42:00,
2013-02-07 05:52:00,13.0,2.0,30.38,SE,139,0.0,0.0,61,0.00,,,0.01,,2013-02-07 10:52:00,
2013-02-07 06:01:00,13.0,2.0,30.38,SE,139,0.0,0.0,61,0.00,,,0.01,,2013-02-07 11:01:00,
2013-02-07 06:11:00,13.0,2.0,30.38,SE,139,0.0,0.0,61,0.00,,,0.01,,2013-02-07 11:11:00,
2013-02-07 06:23:00,13.0,2.0,30.38,SE,139,0.0,0.0,60,0.00,,,0.01,,2013-02-07 11:23:00,
2013-02-07 06:32:00,13.0,2.0,30.38,SE,139,0.0,0.0,60,0.00,,,0.01,,2013-02-07 11:32:00,
2013-02-07 06:44:00,13.0,2.0,30.38,SE,139,0.0,0.0,60,0.00,,,0.01,,2013-02-07 11:44:00,
2013-02-07 06:53:00,13.0,1.0,30.39,ESE,113,0.0,1.0,58,0.00,,,0.01,,2013-02-07 11:53:00,
2013-02-07 07:02:00,13.0,1.0,30.39,ESE,113,0.0,1.0,58,0.00,,,0.01,,2013-02-07 12:02:00,
2013-02-07 07:12:00,13.0,1.0,30.39,ESE,113,0.0,1.0,58,0.00,,,0.01,,2013-02-07 12:12:00,
2013-02-07 07:22:00,14.0,1.0,30.40,SSE,168,0.0,1.0,55,0.00,,,0.01,,2013-02-07 12:22:00,
2013-02-07 07:33:00,14.0,1.0,30.40,SSE,168,0.0,1.0,55,0.00,,,0.01,,2013-02-07 12:33:00,
2013-02-07 07:42:00,14.0,1.0,30.40,SSE,168,0.0,1.0,55,0.00,,,0.01,,2013-02-07 12:42:00,
2013-02-07 07:53:00,14.0,1.0,30.43,South,173,0.0,2.0,56,0.00,,,0.01,,2013-02-07 12:53:00,
2013-02-07 08:03:00,14.0,1.0,30.43,South,173,0.0,2.0,56,0.00,,,0.01,,2013-02-07 13:03:00,
2013-02-07 08:12:00,14.0,1.0,30.43,South,173,0.0,2.0,56,0.00,,,0.01,,2013-02-07 13:12:00,
2013-02-07 08:22:00,15.0,1.0,30.44,NNE,16,0.0,2.0,53,0.00,,,0.01,,2013-02-07 13:22:00,
2013-02-07 08:32:00,15.0,1.0,30.44,NNE,16,0.0,2.0,53,0.00,,,0.01,,2013-02-07 13:32:00,
2013-02-07 08:42:00,15.0,1.0,30.44,NNE,16,0.0,2.0,53,0.00,,,0.01,,2013-02-07 13:42:00,
2013-02-07 08:52:00,16.0,0.0,30.45,East,91,1.0,3.0,49,0.00,,,0.01,,2013-02-07 13:52:00,
2013-02-07 09:01:00,16.0,0.0,30.45,East,91,1.0,3.0,49,0.00,,,0.01,,2013-02-07 14:01:00,
2013-02-07 09:11:00,16.0,0.0,30.45,East,91,1.0,3.0,49,0.00,,,0.01,,2013-02-07 14:11:00,
2013-02-07 09:22:00,17.0,1.0,30.47,NNW,338,1.0,3.0,48,0.00,,,0.01,,2013-02-07 14:22:00,
2013-02-07 09:32:00,17.0,1.0,30.47,NNW,338,1.0,3.0,48,0.00,,,0.01,,2013-02-07 14:32:00,
2013-02-07 09:42:00,17.0,1.0,30.47,NNW,338,1.0,3.0,48,0.00,,,0.01,,2013-02-07 14:42:00,
2013-02-07 09:52:00,18.0,1.0,30.48,NNW,348,1.0,4.0,46,0.00,,,0.01,,2013-02-07 14:52:00,
2013-02-07 10:02:00,18.0,1.0,30.48,NNW,348,1.0,4.0,46,0.00,,,0.01,,2013-02-07 15:02:00,
2013-02-07 10:11:00,18.0,1.0,30.48,NNW,348,1.0,4.0,46,0.00,,,0.01,,2013-02-07 15:11:00,
2013-02-07 10:22:00,18.0,0.0,30.48,NE,34,1.0,5.0,45,0.00,,,0.01,,2013-02-07 15:22:00,
2013-02-07 10:32:00,18.0,0.0,30.48,NE,34,1.0,5.0,45,0.00,,,0.01,,2013-02-07 15:32:00,
2013-02-07 10:42:00,18.0,0.0,30.48,NE,34,1.0,5.0,45,0.00,,,0.01,,2013-02-07 15:42:00,
2013-02-07 10:52:00,20.0,1.0,30.50,NNW,337,1.0,4.0,42,0.00,,,0.01,,2013-02-07 15:52:00,
2013-02-07 11:01:00,20.0,1.0,30.50,NNW,337,1.0,4.0,42,0.00,,,0.01,,2013-02-07 16:01:00,
2013-02-07 11:11:00,20.0,1.0,30.50,NNW,337,1.0,4.0,42,0.00,,,0.01,,2013-02-07 16:11:00,
2013-02-07 11:22:00,20.0,-1.0,30.49,SE,136,1.0,4.0,38,0.00,,,0.01,,2013-02-07 16:22:00,
2013-02-07 11:32:00,20.0,-1.0,30.49,SE,136,1.0,4.0,38,0.00,,,0.01,,2013-02-07 16:32:00,
2013-02-07 11:42:00,20.0,-1.0,30.49,SE,136,1.0,4.0,38,0.00,,,0.01,,2013-02-07 16:42:00,
2013-02-07 11:52:00,22.0,0.0,30.49,NNW,336,1.0,4.0,37,0.00,,,0.01,,2013-02-07 16:52:00,
2013-02-07 12:01:00,22.0,0.0,30.49,NNW,336,1.0,4.0,37,0.00,,,0.01,,2013-02-07 17:01:00,
2013-02-07 12:11:00,22.0,0.0,30.49,NNW,336,1.0,4.0,37,0.00,,,0.01,,2013-02-07 17:11:00,
2013-02-07 12:21:00,23.0,1.0,30.47,South,173,0.0,3.0,37,0.00,,,0.00,,2013-02-07 17:21:00,
2013-02-07 12:32:00,23.0,1.0,30.47,South,173,0.0,3.0,37,0.00,,,0.00,,2013-02-07 17:32:00,
2013-02-07 12:43:00,23.0,1.0,30.47,South,173,0.0,3.0,37,0.00,,,0.00,,2013-02-07 17:43:00,
2013-02-07 12:52:00,24.0,-1.0,30.46,North,360,2.0,4.0,33,0.00,,,0.00,,2013-02-07 17:52:00,
2013-02-07 13:02:00,24.0,-1.0,30.46,North,360,2.0,4.0,33,0.00,,,0.00,,2013-02-07 18:02:00,
2013-02-07 13:12:00,24.0,-1.0,30.46,North,360,2.0,4.0,33,0.00,,,0.00,,2013-02-07 18:12:00,
2013-02-07 13:23:00,26.0,0.0,30.46,NNW,336,1.0,3.0,31,0.00,,,0.00,,2013-02-07 18:23:00,
2013-02-07 13:32:00,26.0,0.0,30.46,NNW,336,1.0,3.0,31,0.00,,,0.00,,2013-02-07 18:32:00,
2013-02-07 13:42:00,26.0,0.0,30.46,NNW,336,1.0,3.0,31,0.00,,,0.00,,2013-02-07 18:42:00,
2013-02-07 13:52:00,26.0,-2.0,30.46,WSW,242,0.0,3.0,29,0.00,,,0.00,,2013-02-07 18:52:00,
2013-02-07 14:01:00,26.0,-2.0,30.46,WSW,242,0.0,3.0,29,0.00,,,0.00,,2013-02-07 19:01:00,
2013-02-07 14:11:00,26.0,-2.0,30.46,WSW,242,0.0,3.0,29,0.00,,,0.00,,2013-02-07 19:11:00,
2013-02-07 14:22:00,25.0,-3.0,30.45,NNW,340,1.0,4.0,29,0.00,,,0.00,,2013-02-07 19:22:00,
2013-02-07 14:32:00,25.0,-3.0,30.45,NNW,340,1.0,4.0,29,0.00,,,0.00,,2013-02-07 19:32:00,
2013-02-07 14:42:00,25.0,-3.0,30.45,NNW,340,1.0,4.0,29,0.00,,,0.00,,2013-02-07 19:42:00,
2013-02-07 14:52:00,25.0,-4.0,30.44,WSW,243,0.0,2.0,27,0.00,,,0.00,,2013-02-07 19:52:00,
2013-02-07 15:01:00,25.0,-4.0,30.44,WSW,243,0.0,2.0,27,0.00,,,0.00,,2013-02-07 20:01:00,
2013-02-07 15:11:00,25.0,-4.0,30.44,WSW,243,0.0,2.0,27,0.00,,,0.00,,2013-02-07 20:11:00,
2013-02-07 15:22:00,25.0,-5.0,30.43,NE,51,0.0,4.0,26,0.00,,,0.00,,2013-02-07 20:22:00,
2013-02-07 15:32:00,25.0,-5.0,30.43,NE,51,0.0,4.0,26,0.00,,,0.00,,2013-02-07 20:32:00,
2013-02-07 15:42:00,25.0,-5.0,30.43,NE,51,0.0,4.0,26,0.00,,,0.00,,2013-02-07 20:42:00,
2013-02-07 15:52:00,25.0,-3.0,30.44,ENE,71,0.0,2.0,28,0.00,,,0.00,,2013-02-07 20:52:00,
2013-02-07 16:02:00,25.0,-3.0,30.44,ENE,71,0.0,2.0,28,0.00,,,0.00,,2013-02-07 21:02:00,
2013-02-07 16:11:00,25.0,-3.0,30.44,ENE,71,0.0,2.0,28,0.00,,,0.00,,2013-02-07 21:11:00,
2013-02-07 16:22:00,25.0,-5.0,30.45,ENE,71,0.0,1.0,26,0.00,,,0.00,,2013-02-07 21:22:00,
2013-02-07 16:32:00,25.0,-5.0,30.45,ENE,71,0.0,1.0,26,0.00,,,0.00,,2013-02-07 21:32:00,
2013-02-07 16:42:00,25.0,-5.0,30.45,ENE,71,0.0,1.0,26,0.00,,,0.00,,2013-02-07 21:42:00,
2013-02-07 16:52:00,24.0,-2.0,30.45,ENE,71,0.0,1.0,32,0.00,,,0.00,,2013-02-07 21:52:00,
2013-02-07 17:02:00,24.0,-2.0,30.45,ENE,71,0.0,1.0,32,0.00,,,0.00,,2013-02-07 22:02:00,
2013-02-07 17:11:00,24.0,-2.0,30.45,ENE,71,0.0,1.0,32,0.00,,,0.00,,2013-02-07 22:11:00,
2013-02-07 17:22:00,23.0,-2.0,30.45,ENE,71,0.0,0.0,32,0.00,,,0.00,,2013-02-07 22:22:00,
2013-02-07 17:32:00,23.0,-2.0,30.45,ENE,71,0.0,0.0,32,0.00,,,0.00,,2013-02-07 22:32:00,
2013-02-07 17:42:00,23.0,-2.0,30.45,ENE,71,0.0,0.0,32,0.00,,,0.00,,2013-02-07 22:42:00,
2013-02-07 17:52:00,22.0,-2.0,30.45,ENE,71,0.0,0.0,34,0.00,,,0.00,,2013-02-07 22:52:00,
2013-02-07 18:02:00,22.0,-2.0,30.45,ENE,71,0.0,0.0,34,0.00,,,0.00,,2013-02-07 23:02:00,
2013-02-07 18:11:00,22.0,-2.0,30.45,ENE,71,0.0,0.0,34,0.00,,,0.00,,2013-02-07 23:11:00,
2013-02-07 18:22:00,21.0,2.0,30.47,ENE,71,0.0,0.0,42,0.00,,,0.00,,2013-02-07 23:22:00,
2013-02-07 18:32:00,21.0,2.0,30.47,ENE,71,0.0,0.0,42,0.00,,,0.00,,2013-02-07 23:32:00,
2013-02-07 18:42:00,21.0,2.0,30.47,ENE,71,0.0,0.0,42,0.00,,,0.00,,2013-02-07 23:42:00,
2013-02-07 18:52:00,20.0,2.0,30.48,ENE,71,0.0,0.0,45,0.00,,,0.00,,2013-02-07 23:52:00,
2013-02-07 19:02:00,20.0,2.0,30.48,ENE,71,0.0,0.0,45,0.00,,,0.00,,2013-02-08 00:02:00,
2013-02-07 19:11:00,20.0,2.0,30.48,ENE,71,0.0,0.0,45,0.00,,,0.00,,2013-02-08 00:11:00,
2013-02-07 19:22:00,19.0,1.0,30.48,ENE,71,0.0,0.0,44,0.00,,,0.00,,2013-02-08 00:22:00,
2013-02-07 19:32:00,19.0,1.0,30.48,ENE,71,0.0,0.0,44,0.00,,,0.00,,2013-02-08 00:32:00,
2013-02-07 19:42:00,19.0,1.0,30.48,ENE,71,0.0,0.0,44,0.00,,,0.00,,2013-02-08 00:42:00,
2013-02-07 19:52:00,19.0,2.0,30.48,ENE,71,0.0,0.0,47,0.00,,,0.00,,2013-02-08 00:52:00,
2013-02-07 20:01:00,19.0,2.0,30.48,ENE,71,0.0,0.0,47,0.00,,,0.00,,2013-02-08 01:01:00,
2013-02-07 20:11:00,19.0,2.0,30.48,ENE,71,0.0,0.0,47,0.00,,,0.00,,2013-02-08 01:11:00,
2013-02-07 20:21:00,19.0,1.0,30.48,ENE,71,0.0,0.0,45,0.00,,,0.00,,2013-02-08 01:21:00,
2013-02-07 20:32:00,19.0,1.0,30.48,ENE,71,0.0,0.0,45,0.00,,,0.00,,2013-02-08 01:32:00,
2013-02-07 20:42:00,19.0,1.0,30.48,ENE,71,0.0,0.0,45,0.00,,,0.00,,2013-02-08 01:42:00,
2013-02-07 20:52:00,20.0,4.0,30.49,ENE,71,0.0,0.0,49,0.00,,,0.00,,2013-02-08 01:52:00,
2013-02-07 21:01:00,20.0,4.0,30.49,ENE,71,0.0,0.0,49,0.00,,,0.00,,2013-02-08 02:01:00,
2013-02-07 21:11:00,20.0,4.0,30.49,ENE,71,0.0,0.0,49,0.00,,,0.00,,2013-02-08 02:11:00,
2013-02-07 21:21:00,21.0,4.0,30.48,ENE,71,0.0,0.0,48,0.00,,,0.00,,2013-02-08 02:21:00,
2013-02-07 21:32:00,21.0,4.0,30.48,ENE,71,0.0,0.0,48,0.00,,,0.00,,2013-02-08 02:32:00,
2013-02-07 21:42:00,21.0,4.0,30.48,ENE,71,0.0,0.0,48,0.00,,,0.00,,2013-02-08 02:42:00,
2013-02-07 21:52:00,22.0,4.0,30.48,ENE,71,0.0,0.0,45,0.00,,,0.00,,2013-02-08 02:52:00,
2013-02-07 22:02:00,22.0,4.0,30.48,ENE,71,0.0,0.0,45,0.00,,,0.00,,2013-02-08 03:02:00,
2013-02-07 22:12:00,22.0,4.0,30.48,ENE,71,0.0,0.0,45,0.00,,,0.00,,2013-02-08 03:12:00,
2013-02-07 22:22:00,22.0,4.0,30.47,ENE,71,0.0,0.0,45,0.00,,,0.00,,2013-02-08 03:22:00,
2013-02-07 22:32:00,22.0,4.0,30.47,ENE,71,0.0,0.0,45,0.00,,,0.00,,2013-02-08 03:32:00,
2013-02-07 22:42:00,22.0,4.0,30.47,ENE,71,0.0,0.0,45,0.00,,,0.00,,2013-02-08 03:42:00,
2013-02-07 22:52:00,22.0,5.0,30.46,ENE,71,0.0,0.0,48,0.00,,,0.00,,2013-02-08 03:52:00,
2013-02-07 23:02:00,22.0,5.0,30.46,ENE,71,0.0,0.0,48,0.00,,,0.00,,2013-02-08 04:02:00,
2013-02-07 23:11:00,22.0,5.0,30.46,ENE,71,0.0,0.0,48,0.00,,,0.00,,2013-02-08 04:11:00,
2013-02-07 23:21:00,22.0,5.0,30.46,ENE,71,0.0,0.0,47,0.00,,,0.00,,2013-02-08 04:21:00,
2013-02-07 23:32:00,22.0,5.0,30.46,ENE,71,0.0,0.0,47,0.00,,,0.00,,2013-02-08 04:32:00,
2013-02-07 23:42:00,22.0,5.0,30.46,ENE,71,0.0,0.0,47,0.00,,,0.00,,2013-02-08 04:42:00,
2013-02-07 23:52:00,23.0,8.0,30.46,ENE,71,0.0,0.0,51,0.00,,,0.00,,2013-02-08 04:52:00,